2024-203B

Last updated on Thu Nov 21 2024 00:02:05 GMT+0000 (Coordinated Universal Time)

1 61870U 24203B 24325.56752905 .00016728 00000+0 92814-3 0 9998 2 61870 97.4896 30.1734 0016499 171.5102 188.6411 15.13710777 1729
UTC large
Height (km)
Speed (km/s)
/
Latitude / Longitude
Inclination (degrees)
Orbital Period (minutes)
Azimuth
Elevation
Range (km)
Doppler Factor

Next 0 passes for location: London (51.5072 / 0.1276)

Sorry there are no passes over London.